CW8721 Weather Reports


time (UTC)temp
F
wind
direction
speed
knots
gust
knots
rain 1hr
in
rain 24hr
in
rain mn
in
humidity
%
barometer
mb
20260906201101 86 152 7.8 15.6 0.00 0.00 0.00 26 1002.1
20260906200558 85 185 6.1 15.6 0.00 0.00 0.00 26 1002.2
20260906200058 85 148 9.6 20.0 0.00 0.00 0.00 25 1002.4
20260906195558 85 167 9.6 20.0 0.00 0.00 0.00 25 1002.5
20260906195056 85 184 6.1 15.6 0.00 0.00 0.00 27 1002.5
20260906194555 85 127 6.1 21.7 0.00 0.00 0.00 27 1002.6
20260906194055 84 136 8.7 21.7 0.00 0.00 0.00 27 1002.7
20260906193553 84 207 8.7 20.0 0.00 0.00 0.00 28 1002.7
20260906193053 84 181 4.3 20.0 0.00 0.00 0.00 27 1002.9
20260906192552 84 101 6.1 13.0 0.00 0.00 0.00 28 1002.9
20260906192052 84 157 5.2 17.4 0.00 0.00 0.00 29 1003.2
20260906191555 83 144 4.3 17.4 0.00 0.00 0.00 27 1003.3
20260906191050 83 86 5.2 19.1 0.00 0.00 0.00 29 1003.3
20260906190553 83 157 8.7 19.1 0.00 0.00 0.00 28 1003.4
20260906190049 83 138 7.0 17.4 0.00 0.00 0.00 28 1003.5
20260906185548 83 173 7.0 17.4 0.00 0.00 0.00 28 1003.6
20260906185048 84 130 6.1 13.9 0.00 0.00 0.00 27 1003.7
20260906184547 84 129 3.5 9.6 0.00 0.00 0.00 28 1003.8
20260906184046 84 147 6.1 16.5 0.00 0.00 0.00 27 1004.1
20260906183547 84 148 7.8 17.4 0.00 0.00 0.00 26 1004.1
20260906183046 84 283 5.2 17.4 0.00 0.00 0.00 27 1003.9
20260906182545 84 146 5.2 13.0 0.00 0.00 0.00 27 1004.2
20260906182044 84 160 2.6 13.0 0.00 0.00 0.00 28 1004.1
20260906181548 83 177 6.1 13.0 0.00 0.00 0.00 26 1004.1
20260906181042 83 173 6.1 16.5 0.00 0.00 0.00 28 1004.2
20260906180541 83 150 6.1 16.5 0.00 0.00 0.00 27 1004.4
20260906180045 82 156 3.5 16.5 0.00 0.00 0.00 28 1004.3
20260906175545 83 172 5.2 12.2 0.00 0.00 0.00 27 1004.4
20260906175039 83 152 5.2 17.4 0.00 0.00 0.00 27 1004.5
20260906174537 82 162 7.0 18.2 0.00 0.00 0.00 27 1004.6
20260906174037 82 148 7.8 18.2 0.00 0.00 0.00 28 1004.9
20260906173536 82 139 8.7 17.4 0.00 0.00 0.00 27 1004.9
20260906173048 82 191 5.2 14.8 0.00 0.00 0.00 27 1005.1
20260906172536 82 139 4.3 13.0 0.00 0.00 0.00 27 1005.1
20260906172038 82 178 6.1 17.4 0.00 0.00 0.00 27 1005.2
20260906171533 81 115 6.1 17.4 0.00 0.00 0.00 27 1005.2
20260906171032 81 157 8.7 17.4 0.00 0.00 0.00 27 1005.5
20260906170531 81 203 7.0 13.0 0.00 0.00 0.00 28 1005.4
20260906170030 81 138 6.1 11.3 0.00 0.00 0.00 27 1005.6
20260906165529 81 184 5.2 11.3 0.00 0.00 0.00 28 1005.7
20260906165027 81 176 6.1 18.2 0.00 0.00 0.00 28 1005.6
20260906164525 80 151 7.0 18.2 0.00 0.00 0.00 29 1005.6
20260906164024 80 149 5.2 14.8 0.00 0.00 0.00 29 1005.6
20260906163522 80 136 6.1 14.8 0.00 0.00 0.00 28 1005.6
20260906163025 80 194 5.2 15.6 0.00 0.00 0.00 28 1005.8
20260906162524 79 178 7.0 15.6 0.00 0.00 0.00 29 1005.8
20260906162019 79 173 4.3 14.8 0.00 0.00 0.00 30 1005.7
20260906161518 79 157 6.1 13.9 0.00 0.00 0.00 29 1005.9
20260906161020 79 166 4.3 14.8 0.00 0.00 0.00 30 1006.0
20260906160514 78 178 6.1 17.4 0.00 0.00 0.00 30 1005.9
20260906160028 78 171 8.7 17.4 0.00 0.00 0.00 30 1005.9
20260906155512 78 150 6.1 12.2 0.00 0.00 0.00 31 1006.1
20260906155012 78 84 5.2 12.2 0.00 0.00 0.00 31 1006.1
20260906154509 78 135 4.3 10.4 0.00 0.00 0.00 31 1006.1
20260906154007 77 182 5.2 10.4 0.00 0.00 0.00 31 1006.2
20260906153508 77 126 1.7 8.7 0.00 0.00 0.00 34 1006.3
20260906153005 77 126 2.6 8.7 0.00 0.00 0.00 34 1006.3
20260906152504 77 137 2.6 7.0 0.00 0.00 0.00 33 1006.3
20260906152002 76 155 2.6 8.7 0.00 0.00 0.00 33 1006.4
20260906151606 76 138 2.6 8.7 0.00 0.00 0.00 33 1006.3
20260906151059 76 145 2.6 8.7 0.00 0.00 0.00 33 1006.3
20260906150558 76 157 4.3 8.7 0.00 0.00 0.00 31 1006.3
20260906150059 76 175 3.5 8.7 0.00 0.00 0.00 32 1006.3
20260906145601 75 135 2.6 7.8 0.00 0.00 0.00 33 1006.4
20260906145058 75 106 4.3 9.6 0.00 0.00 0.00 32 1006.2
20260906144616 75 142 2.6 9.6 0.00 0.00 0.00 32 1006.1
20260906144056 74 172 5.2 7.8 0.00 0.00 0.00 32 1006.2
20260906143556 74 182 4.3 7.8 0.00 0.00 0.00 32 1006.3
20260906143111 74 188 4.3 9.6 0.00 0.00 0.00 32 1006.2
20260906142554 73 139 4.3 9.6 0.00 0.00 0.00 32 1006.2
20260906142054 73 173 3.5 9.6 0.00 0.00 0.00 32 1006.1
20260906141555 73 182 4.3 8.7 0.00 0.00 0.00 32 1006.0
20260906141053 73 182 3.5 8.7 0.00 0.00 0.00 32 1005.9
20260906140551 73 182 4.3 8.7 0.00 0.00 0.00 32 1005.9
20260906140050 72 153 3.5 9.6 0.00 0.00 0.00 32 1005.8
20260906135553 72 196 4.3 9.6 0.00 0.00 0.00 32 1005.8
20260906135052 71 177 2.6 5.2 0.00 0.00 0.00 32 1005.8
20260906134553 71 180 1.7 4.3 0.00 0.00 0.00 32 1005.7
20260906134048 72 177 2.6 7.8 0.00 0.00 0.00 32 1005.6
20260906133548 72 175 3.5 7.8 0.00 0.00 0.00 32 1005.5
20260906133050 71 173 3.5 9.6 0.00 0.00 0.00 32 1005.5
20260906132547 71 172 4.3 9.6 0.00 0.00 0.00 33 1005.5
20260906132049 70 182 2.6 7.8 0.00 0.00 0.00 33 1005.4
20260906131555 70 182 3.5 7.8 0.00 0.00 0.00 33 1005.4
20260906131045 71 192 2.6 7.0 0.00 0.00 0.00 33 1005.4
20260906130545 70 179 3.5 6.1 0.00 0.00 0.00 32 1005.3
20260906130047 70 182 2.6 6.1 0.00 0.00 0.00 32 1005.3
20260906125545 70 179 1.7 6.1 0.00 0.00 0.00 32 1005.4
20260906125045 70 171 3.5 8.7 0.00 0.00 0.00 32 1005.3
20260906124646 70 184 4.3 8.7 0.00 0.00 0.00 32 1005.4
20260906124046 70 175 3.5 7.8 0.00 0.00 0.00 32 1005.4
20260906123545 70 179 2.6 7.0 0.00 0.00 0.00 32 1005.4
20260906123043 70 182 4.3 7.0 0.00 0.00 0.00 32 1005.3
20260906122545 70 176 3.5 7.8 0.00 0.00 0.00 32 1005.4
20260906122046 70 148 3.5 7.8 0.00 0.00 0.00 32 1005.4
20260906121545 70 175 4.3 8.7 0.00 0.00 0.00 32 1005.4
20260906121041 71 173 4.3 7.8 0.00 0.00 0.00 32 1005.4
20260906120540 71 132 3.5 8.7 0.00 0.00 0.00 32 1005.4
20260906120038 71 186 5.2 8.7 0.00 0.00 0.00 31 1005.4
20260906115538 72 169 4.3 8.7 0.00 0.00 0.00 30 1005.4
20260906115037 72 171 3.5 8.7 0.00 0.00 0.00 30 1005.4
20260906114537 72 184 4.3 8.7 0.00 0.00 0.00 30 1005.3
20260906114037 72 134 4.3 9.6 0.00 0.00 0.00 30 1005.4
20260906113535 72 180 3.5 8.7 0.00 0.00 0.00 30 1005.4
20260906113043 72 169 2.6 7.8 0.00 0.00 0.00 32 1005.4
20260906112535 72 166 2.6 7.8 0.00 0.00 0.00 31 1005.3
20260906112035 72 180 4.3 7.8 0.00 0.00 0.00 30 1005.4
20260906111536 72 182 3.5 7.8 0.00 0.00 0.00 30 1005.5
20260906111034 72 159 2.6 7.8 0.00 0.00 0.00 30 1005.5
20260906110537 73 156 3.5 7.8 0.00 0.00 0.00 29 1005.5
20260906110032 73 152 4.3 8.7 0.00 0.00 0.00 29 1005.4
20260906105531 73 175 4.3 8.7 0.00 0.00 0.00 29 1005.5
20260906105032 73 173 3.5 7.8 0.00 0.00 0.00 29 1005.4
20260906104531 73 185 3.5 8.7 0.00 0.00 0.00 29 1005.4
20260906104031 73 155 3.5 7.8 0.00 0.00 0.00 29 1005.4
20260906103531 73 171 4.3 7.8 0.00 0.00 0.00 29 1005.4
20260906103030 73 165 3.5 8.7 0.00 0.00 0.00 29 1005.3
20260906102530 73 177 2.6 8.7 0.00 0.00 0.00 29 1005.4
20260906102029 73 154 3.5 8.7 0.00 0.00 0.00 28 1005.4
20260906101530 73 170 2.6 7.8 0.00 0.00 0.00 29 1005.3
20260906101030 72 155 2.6 7.8 0.00 0.00 0.00 29 1005.2
20260906100531 73 132 2.6 6.1 0.00 0.00 0.00 29 1005.3
20260906100028 73 150 2.6 6.1 0.00 0.00 0.00 29 1005.3
20260906095528 73 175 2.6 9.6 0.00 0.00 0.00 29 1005.2
20260906095028 73 179 3.5 10.4 0.00 0.00 0.00 29 1005.2
20260906094533 72 179 2.6 10.4 0.00 0.00 0.00 29 1005.1
20260906094027 72 157 2.6 7.0 0.00 0.00 0.00 30 1005.1
20260906093527 72 165 2.6 6.1 0.00 0.00 0.00 30 1005.1
20260906093027 72 149 2.6 7.0 0.00 0.00 0.00 29 1005.0
20260906092526 72 186 2.6 7.0 0.00 0.00 0.00 30 1005.1
20260906092026 72 193 2.6 7.0 0.00 0.00 0.00 30 1005.1
20260906091529 72 172 1.7 7.0 0.00 0.00 0.00 30 1005.0
20260906091026 72 184 2.6 6.1 0.00 0.00 0.00 30 1005.1
20260906090524 72 141 2.6 6.1 0.00 0.00 0.00 30 1004.9
20260906090024 72 189 2.6 6.1 0.00 0.00 0.00 30 1005.0
20260906085524 72 180 2.6 5.2 0.00 0.00 0.00 29 1005.1
20260906085023 72 181 2.6 6.1 0.00 0.00 0.00 29 1005.1
20260906084526 73 173 2.6 6.1 0.00 0.00 0.00 28 1005.0
20260906084021 73 182 2.6 8.7 0.00 0.00 0.00 28 1005.0
20260906083523 73 178 3.5 8.7 0.00 0.00 0.00 27 1005.0
20260906083024 73 189 4.3 7.8 0.00 0.00 0.00 27 1005.0
20260906082520 73 152 4.3 8.7 0.00 0.00 0.00 27 1005.1
20260906082020 73 167 4.3 8.7 0.00 0.00 0.00 26 1005.0
20260906081532 73 173 4.3 7.8 0.00 0.00 0.00 26 1005.0
20260906081019 73 154 3.5 8.7 0.00 0.00 0.00 26 1005.0
20260906080519 73 157 4.3 8.7 0.00 0.00 0.00 25 1005.0
20260906080019 74 174 3.5 7.8 0.00 0.00 0.00 25 1005.1
20260906075518 73 186 2.6 6.1 0.00 0.00 0.00 25 1005.2
20260906075018 73 142 3.5 6.1 0.00 0.00 0.00 26 1005.2
20260906074519 72 123 1.7 5.2 0.00 0.00 0.00 27 1005.2
20260906074021 72 186 0.9 4.3 0.00 0.00 0.00 28 1005.2
20260906073518 72 169 1.7 4.3 0.00 0.00 0.00 28 1005.2
20260906073018 72 176 0.9 3.5 0.00 0.00 0.00 28 1005.1
20260906072517 72 169 0.9 5.2 0.00 0.00 0.00 28 1005.0
20260906072018 72 179 1.7 5.2 0.00 0.00 0.00 28 1005.1
20260906071516 72 161 0.9 5.2 0.00 0.00 0.00 28 1005.2
20260906071017 72 176 1.7 5.2 0.00 0.00 0.00 28 1005.1
20260906070516 72 147 1.7 6.1 0.00 0.00 0.00 27 1005.1
20260906070015 72 178 0.9 3.5 0.00 0.00 0.00 27 1005.1
20260906065514 72 152 0.9 4.3 0.00 0.00 0.00 27 1005.0
20260906065015 74 148 0.9 6.1 0.00 0.00 0.00 25 1005.1
20260906064511 74 164 1.7 6.1 0.00 0.00 0.00 24 1005.2
20260906064011 75 155 1.7 7.0 0.00 0.00 0.00 23 1005.1
20260906063509 76 181 2.6 7.8 0.00 0.00 0.00 22 1005.1
20260906063009 76 171 3.5 7.8 0.00 0.00 0.00 23 1005.0
20260906062508 76 182 1.7 7.0 0.00 0.00 0.00 24 1004.9
20260906062008 76 168 3.5 7.0 0.00 0.00 0.00 24 1004.9
20260906061506 76 171 4.3 7.8 0.00 0.00 0.00 24 1004.8
20260906061005 76 159 4.3 9.6 0.00 0.00 0.00 24 1004.7
20260906060505 76 164 5.2 9.6 0.00 0.00 0.00 24 1004.8
20260906060007 76 165 3.5 8.7 0.00 0.00 0.00 24 1004.8
20260906055504 77 178 3.5 8.7 0.00 0.00 0.00 24 1004.8
20260906055004 76 170 4.3 10.4 0.00 0.00 0.00 23 1004.8
20260906054503 76 187 5.2 9.6 0.00 0.00 0.00 23 1004.6
20260906054002 76 175 3.5 7.0 0.00 0.00 0.00 23 1004.6
20260906053504 76 181 2.6 7.0 0.00 0.00 0.00 23 1004.6
20260906053002 76 175 2.6 5.2 0.00 0.00 0.00 22 1004.6
20260906052502 77 180 2.6 5.2 0.00 0.00 0.00 22 1004.6
20260906052004 77 190 2.6 7.0 0.00 0.00 0.00 21 1004.6
20260906051502 77 182 2.6 7.8 0.00 0.00 0.00 21 1004.4
20260906051002 77 183 2.6 7.8 0.00 0.00 0.00 20 1004.6
20260906050501 77 178 2.6 7.8 0.00 0.00 0.00 21 1004.4
20260906050001 77 173 3.5 8.7 0.00 0.00 0.00 20 1004.3
20260906045601 77 129 3.5 8.7 0.00 0.00 0.00 20 1004.3
20260906045502 77 175 3.5 9.6 0.00 0.00 0.00 20 1004.3
20260906045100 77 200 2.6 8.7 0.00 0.00 0.00 20 1004.3
20260906045001 77 175 2.6 8.7 0.00 0.00 0.00 20 1004.2
20260906044600 77 165 3.5 8.7 0.00 0.00 0.00 20 1004.4
20260906044101 76 176 2.6 7.8 0.00 0.00 0.00 21 1004.4
20260906043600 74 160 3.5 7.0 0.00 0.00 0.00 23 1004.3
20260906043109 74 132 1.7 4.3 0.00 0.00 0.00 24 1004.2
20260906042601 73 140 0.9 4.3 0.00 0.00 0.00 24 1004.2
20260906042100 73 140 0.0 3.5 0.00 0.00 0.00 25 1004.2
20260906041601 73 145 0.0 3.5 0.00 0.00 0.00 25 1004.0
20260906041100 74 146 1.7 3.5 0.00 0.00 0.00 25 1004.1
20260906040558 74 145 0.9 2.6 0.00 0.00 0.00 24 1004.1
20260906040059 75 144 0.9 3.5 0.00 0.00 0.00 25 1003.9
20260906035557 75 172 0.9 4.3 0.00 0.00 0.00 24 1004.0
20260906035058 75 152 0.0 2.6 0.00 0.00 0.00 24 1004.0
20260906034558 76 160 0.9 4.3 0.00 0.00 0.00 24 1003.9
20260906034101 76 174 0.9 4.3 0.00 0.00 0.00 24 1003.9
20260906033559 76 149 0.9 4.3 0.00 0.00 0.00 24 1003.7
20260906033057 76 130 1.7 4.3 0.00 0.00 0.00 24 1003.7
20260906032557 75 146 1.7 4.3 0.00 0.00 0.00 24 1003.5
20260906032059 75 123 1.7 4.3 0.00 0.00 0.00 24 1003.4
20260906031557 75 128 0.9 5.2 0.00 0.00 0.00 25 1003.3
20260906031057 75 105 1.7 5.2 0.00 0.00 0.00 25 1003.3
20260906030556 75 142 1.7 3.5 0.00 0.00 0.00 25 1003.3
20260906030120 76 144 0.9 2.6 0.00 0.00 0.00 23 1003.2
20260906025556 77 154 1.7 3.5 0.00 0.00 0.00 23 1003.1
20260906025056 79 184 0.0 3.5 0.00 0.00 0.00 21 1003.0
20260906024555 81 196 0.0 2.6 0.00 0.00 0.00 18 1002.9
20260906024055 81 201 0.9 2.6 0.00 0.00 0.00 18 1002.7
20260906023555 81 214 1.7 3.5 0.00 0.00 0.00 18 1002.6
20260906023058 82 208 1.7 3.5 0.00 0.00 0.00 17 1002.5
20260906022555 82 200 0.9 3.5 0.00 0.00 0.00 17 1002.5
20260906022057 83 205 1.7 4.3 0.00 0.00 0.00 17 1002.5
20260906021609 83 193 2.6 5.2 0.00 0.00 0.00 17 1002.5
20260906021054 83 177 2.6 6.1 0.00 0.00 0.00 16 1002.4
20260906020554 84 186 3.5 6.1 0.00 0.00 0.00 16 1002.4
20260906020100 84 241 2.6 5.2 0.00 0.00 0.00 15 1002.4
20260906015554 84 192 2.6 4.3 0.00 0.00 0.00 15 1002.4
20260906015054 84 193 2.6 5.2 0.00 0.00 0.00 15 1002.4
20260906014554 85 188 2.6 8.7 0.00 0.00 0.00 15 1002.4
20260906014054 85 187 3.5 8.7 0.00 0.00 0.00 14 1002.4
20260906013553 86 190 4.3 8.7 0.00 0.00 0.00 14 1002.4
20260906013053 86 201 4.3 7.8 0.00 0.00 0.00 14 1002.4
20260906012552 86 189 3.5 10.4 0.00 0.00 0.00 14 1002.4
20260906012054 87 194 5.2 10.4 0.00 0.00 0.00 14 1002.5
20260906011553 87 186 4.3 9.6 0.00 0.00 0.00 14 1002.5
20260906011052 87 189 4.3 10.4 0.00 0.00 0.00 14 1002.5
20260906010552 87 188 7.0 10.4 0.00 0.00 0.00 14 1002.5
20260906010052 87 190 4.3 9.6 0.00 0.00 0.00 15 1002.5
20260906005551 87 184 4.3 9.6 0.00 0.00 0.00 14 1002.4
20260906005053 88 189 5.2 9.6 0.00 0.00 0.00 14 1002.5
20260906004555 88 196 6.1 8.7 0.00 0.00 0.00 14 1002.5
20260906004051 88 208 5.2 9.6 0.00 0.00 0.00 14 1002.6
20260906003551 88 189 4.3 10.4 0.00 0.00 0.00 14 1002.6
20260906003102 88 191 6.1 10.4 0.00 0.00 0.00 14 1002.5
20260906002553 88 181 4.3 9.6 0.00 0.00 0.00 14 1002.8
20260906002051 88 157 4.3 10.4 0.00 0.00 0.00 14 1002.6
20260906001551 89 171 5.2 13.9 0.00 0.00 0.00 14 1002.7
20260906001050 89 189 7.0 14.8 0.00 0.00 0.00 14 1002.7
20260906000550 89 180 5.2 13.0 0.00 0.00 0.00 14 1002.8
20260906000050 89 185 6.1 8.7 0.00 0.00 0.00 13 1002.8
20260905235550 89 189 4.3 15.6 0.00 0.00 0.00 14 1002.8
20260905235049 88 181 7.8 15.6 0.00 0.00 0.00 13 1002.8
20260905234555 89 226 7.0 11.3 0.00 0.00 0.00 13 1002.7
20260905234048 88 192 5.2 10.4 0.00 0.00 0.00 13 1002.9
20260905233548 88 184 5.2 10.4 0.00 0.00 0.00 13 1002.9
20260905233049 88 186 6.1 13.9 0.00 0.00 0.00 12 1003.1
20260905232547 88 177 7.8 13.9 0.00 0.00 0.00 13 1003.1
20260905232047 89 185 7.0 11.3 0.00 0.00 0.00 13 1003.2
20260905231547 89 213 7.0 18.2 0.00 0.00 0.00 13 1003.2
20260905231049 89 173 8.7 18.2 0.00 0.00 0.00 12 1003.1
20260905230546 89 178 6.1 14.8 0.00 0.00 0.00 13 1003.1
20260905230051 88 194 7.0 16.5 0.00 0.00 0.00 12 1003.3
20260905225548 88 155 6.1 16.5 0.00 0.00 0.00 13 1003.2
20260905225046 88 146 7.0 18.2 0.00 0.00 0.00 12 1003.2
20260905224546 88 153 7.0 16.5 0.00 0.00 0.00 12 1003.3
20260905224046 88 175 5.2 14.8 0.00 0.00 0.00 13 1003.4
20260905223545 88 163 6.1 15.6 0.00 0.00 0.00 13 1003.4
20260905223046 88 184 7.0 15.6 0.00 0.00 0.00 13 1003.4
20260905222545 88 195 7.8 16.5 0.00 0.00 0.00 13 1003.5
20260905222044 89 186 2.6 13.9 0.00 0.00 0.00 13 1003.4
20260905221544 88 165 5.2 13.9 0.00 0.00 0.00 12 1003.7
20260905221047 88 182 6.1 14.8 0.00 0.00 0.00 13 1003.6
20260905220546 88 171 6.1 14.8 0.00 0.00 0.00 13 1003.4
20260905220044 88 200 7.0 16.5 0.00 0.00 0.00 15 1003.5
20260905215542 89 188 7.0 13.9 0.00 0.00 0.00 14 1003.5
20260905215043 89 191 4.3 14.8 0.00 0.00 0.00 17 1003.5
20260905214547 89 165 7.0 14.8 0.00 0.00 0.00 15 1003.7
20260905214042 89 186 7.0 16.5 0.00 0.00 0.00 15 1003.7
20260905213541 89 186 5.2 16.5 0.00 0.00 0.00 12 1003.9
20260905213044 88 175 4.3 10.4 0.00 0.00 0.00 17 1004.0
20260905212540 88 215 5.2 19.1 0.00 0.00 0.00 16 1004.1
20260905212040 88 115 7.0 19.1 0.00 0.00 0.00 17 1004.1
20260905211538 88 134 4.3 11.3 0.00 0.00 0.00 17 1004.2
20260905211038 88 207 4.3 11.3 0.00 0.00 0.00 16 1004.5
20260905210537 88 134 5.2 12.2 0.00 0.00 0.00 16 1004.5
20260905210044 87 188 6.1 14.8 0.00 0.00 0.00 16 1004.5
20260905205537 88 137 7.0 14.8 0.00 0.00 0.00 17 1004.5
20260905205037 88 105 3.5 13.9 0.00 0.00 0.00 18 1004.3
20260905204535 87 180 5.2 13.0 0.00 0.00 0.00 17 1004.4
20260905204034 87 163 7.0 13.0 0.00 0.00 0.00 17 1004.5
20260905203538 87 140 6.1 20.9 0.00 0.00 0.00 18 1004.4
20260905203034 87 186 7.0 20.9 0.00 0.00 0.00 16 1004.5
20260905202533 87 113 3.5 13.9 0.00 0.00 0.00 19 1004.4
20260905202034 86 163 6.1 17.4 0.00 0.00 0.00 18 1004.4
20260905201538 86 137 7.8 17.4 0.00 0.00 0.00 18 1004.6